Location: *
(44.3925°N, 5.4708°E)
Time: 20:41:50
(UTC+00:00)

ARGOS - Pass Details

Date: 18 September 2019
Orbit: 821 x 834 km, 98.5° (Epoch: 13 October)

Event Time Altitude Azimuth Distance (km) Brightness Sun altitude
Exits shadow 19:12:29 21° 139° (SE) 1,751 4.3 -16.3°
Maximum altitude 19:15:52 53° 71° (ENE) 1,005 3.3 -16.9°
Drops below altitude 10° 19:21:06 10° 355° (N) 2,438 5.9 -17.8°
Sets 19:23:30 0° 351° (N) 3,378 6.8 -18.2°
